RYR68QK LIME-LEBL

Flight info

Callsign RYR68QK
Flight time N/A
Altitude 29000
Route VOG DCT GEKBA DCT VAMTU DCT KOLON DCT GANGU DCT PADKO DCT DIVKO DCT NILDU DCT BISBA
Aircraft B738/M-SDE2E3FGHIRWXY/LB1

Departure

Time 2026-05-06 16:33
Airport Il Caravaggio International Airport (LIME)

Arrival

Time N/A
Airport Josep Tarradellas Barcelona-El Prat Airport (LEBL)
Time Latitude Longitude Altitude Speed Heading
2026-05-06 16:18 45.66593 9.70394 786 ft 0 kts 195°
2026-05-06 16:28 45.66592 9.70393 786 ft 1 kts 195°
2026-05-06 16:28 45.66563 9.70389 786 ft 7 kts 168°
2026-05-06 16:28 45.66561 9.70444 786 ft 8 kts 37°
2026-05-06 16:29 45.66634 9.70469 786 ft 13 kts 354°
2026-05-06 16:29 45.66672 9.70384 786 ft 10 kts 284°
2026-05-06 16:29 45.66695 9.70261 786 ft 15 kts 284°
2026-05-06 16:29 45.66726 9.70091 786 ft 20 kts 284°
2026-05-06 16:30 45.66765 9.69879 786 ft 24 kts 285°
2026-05-06 16:30 45.66795 9.69718 786 ft 27 kts 285°
2026-05-06 16:30 45.66860 9.69373 786 ft 26 kts 285°
2026-05-06 16:30 45.66898 9.69164 786 ft 17 kts 282°
2026-05-06 16:31 45.66910 9.69025 786 ft 13 kts 276°
2026-05-06 16:31 45.66926 9.68905 786 ft 12 kts 304°
2026-05-06 16:31 45.66996 9.68888 786 ft 5 kts 15°
2026-05-06 16:31 45.67028 9.68900 786 ft 8 kts 15°
2026-05-06 16:32 45.67101 9.68937 786 ft 13 kts 44°
2026-05-06 16:32 45.67083 9.69081 786 ft 24 kts 104°
2026-05-06 16:32 45.66976 9.69660 786 ft 98 kts 105°
2026-05-06 16:32 45.66742 9.70926 786 ft 163 kts 104°
2026-05-06 16:33 45.66412 9.72676 1156 ft 189 kts 103°
2026-05-06 16:33 45.66050 9.74397 2260 ft 168 kts 111°
2026-05-06 16:33 45.65497 9.75768 3224 ft 160 kts 131°
2026-05-06 16:34 45.63329 9.77701 3786 ft 211 kts 166°
2026-05-06 16:34 45.61816 9.77857 4181 ft 223 kts 187°
2026-05-06 16:34 45.60327 9.77188 4825 ft 228 kts 210°
2026-05-06 16:34 45.59129 9.75727 5665 ft 227 kts 230°
2026-05-06 16:35 45.58212 9.73874 6427 ft 229 kts 234°
2026-05-06 16:35 45.57307 9.71972 7181 ft 231 kts 234°
2026-05-06 16:35 45.56381 9.70099 7919 ft 232 kts 233°
2026-05-06 16:35 45.55429 9.68226 8644 ft 235 kts 232°
2026-05-06 16:36 45.54400 9.66416 9587 ft 237 kts 218°
2026-05-06 16:36 45.53019 9.65405 10291 ft 238 kts 196°
2026-05-06 16:36 45.51395 9.64974 10984 ft 241 kts 190°
2026-05-06 16:36 45.49718 9.64675 11679 ft 244 kts 189°
2026-05-06 16:37 45.48038 9.64286 12289 ft 249 kts 202°
2026-05-06 16:37 45.46565 9.62880 12545 ft 267 kts 223°
2026-05-06 16:37 45.45152 9.60985 12741 ft 291 kts 224°
2026-05-06 16:37 45.43634 9.58905 12914 ft 314 kts 224°
2026-05-06 16:38 45.42005 9.56681 13069 ft 336 kts 224°
2026-05-06 16:38 45.40257 9.54316 13226 ft 355 kts 224°
2026-05-06 16:38 45.38428 9.51861 13625 ft 366 kts 223°
2026-05-06 16:38 45.36560 9.49374 14091 ft 368 kts 223°
2026-05-06 16:39 45.34681 9.46884 14800 ft 370 kts 223°
2026-05-06 16:39 45.32795 9.44393 15510 ft 371 kts 223°
2026-05-06 16:39 45.30896 9.41891 16192 ft 373 kts 223°
2026-05-06 16:39 45.28984 9.39374 16849 ft 375 kts 223°
2026-05-06 16:40 45.27064 9.36851 17501 ft 378 kts 223°
2026-05-06 16:40 45.25127 9.34308 18138 ft 380 kts 223°
2026-05-06 16:40 45.23174 9.31747 18688 ft 383 kts 223°
2026-05-06 16:40 45.21218 9.29184 19260 ft 384 kts 223°
2026-05-06 16:41 45.19276 9.26642 19807 ft 386 kts 223°
2026-05-06 16:41 45.17294 9.24049 20349 ft 388 kts 223°
2026-05-06 16:41 45.15304 9.21449 20883 ft 390 kts 223°
2026-05-06 16:41 45.13304 9.18839 21402 ft 392 kts 223°
2026-05-06 16:42 45.11293 9.16216 21915 ft 394 kts 223°
2026-05-06 16:42 45.09270 9.13580 22411 ft 396 kts 223°
2026-05-06 16:42 45.07236 9.10933 22888 ft 398 kts 223°
2026-05-06 16:42 45.05196 9.08280 23368 ft 400 kts 223°
2026-05-06 16:43 45.03138 9.05606 23773 ft 401 kts 223°
2026-05-06 16:43 45.01081 9.02936 24170 ft 403 kts 223°
2026-05-06 16:43 44.99003 9.00243 24570 ft 404 kts 223°
2026-05-06 16:43 44.96936 8.97546 24960 ft 405 kts 225°
2026-05-06 16:44 44.95049 8.94596 25329 ft 406 kts 231°
2026-05-06 16:44 44.93280 8.91471 25694 ft 407 kts 231°
2026-05-06 16:44 44.91507 8.88343 26057 ft 408 kts 231°
2026-05-06 16:44 44.89755 8.85264 26531 ft 407 kts 231°
2026-05-06 16:45 44.87990 8.82176 27092 ft 403 kts 231°
2026-05-06 16:45 44.86236 8.79116 27677 ft 399 kts 231°
2026-05-06 16:45 44.84496 8.76087 28222 ft 396 kts 231°
2026-05-06 16:45 44.82763 8.73078 28708 ft 395 kts 231°
2026-05-06 16:46 44.81025 8.70063 28773 ft 397 kts 231°
2026-05-06 16:46 44.77551 8.64047 28793 ft 395 kts 231°
2026-05-06 16:47 44.74090 8.58066 28810 ft 394 kts 231°
2026-05-06 16:47 44.70630 8.52099 28791 ft 394 kts 231°
2026-05-06 16:48 44.67170 8.46145 28794 ft 393 kts 231°
2026-05-06 16:48 44.63713 8.40209 28788 ft 392 kts 231°
2026-05-06 16:49 44.60277 8.34320 28790 ft 393 kts 231°
2026-05-06 16:49 44.56806 8.28384 28776 ft 393 kts 231°
2026-05-06 16:50 44.53336 8.22462 28787 ft 393 kts 231°
2026-05-06 16:50 44.49864 8.16547 28774 ft 393 kts 231°
2026-05-06 16:51 44.46963 8.11616 28785 ft 394 kts 231°
2026-05-06 16:51 44.42916 8.04750 28774 ft 393 kts 231°
2026-05-06 16:52 44.39432 7.98852 28769 ft 394 kts 231°
2026-05-06 16:52 44.36508 7.93913 28779 ft 393 kts 231°
2026-05-06 16:53 44.33021 7.88030 28788 ft 393 kts 230°
2026-05-06 16:53 44.29554 7.82194 28754 ft 392 kts 230°
2026-05-06 16:54 44.25955 7.76508 28802 ft 391 kts 224°
2026-05-06 16:54 44.21875 7.71488 28805 ft 391 kts 223°
2026-05-06 16:55 44.17790 7.66460 28783 ft 394 kts 223°
2026-05-06 16:55 44.13772 7.61263 28809 ft 394 kts 229°
2026-05-06 16:55 44.11973 7.58377 28993 ft 395 kts 228°
2026-05-06 16:56 44.10174 7.55472 28886 ft 396 kts 228°
2026-05-06 16:56 44.06606 7.49735 28809 ft 391 kts 228°
2026-05-06 16:57 44.03039 7.44036 28817 ft 390 kts 228°
2026-05-06 16:57 43.99468 7.38349 28817 ft 391 kts 228°
2026-05-06 16:58 43.95910 7.32696 28818 ft 390 kts 228°
2026-05-06 16:58 43.92337 7.27029 28819 ft 390 kts 228°
2026-05-06 16:59 43.88760 7.21370 28821 ft 391 kts 228°
2026-05-06 16:59 43.85170 7.15699 28843 ft 389 kts 228°
2026-05-06 17:00 43.81596 7.10064 28829 ft 389 kts 228°
2026-05-06 17:00 43.78017 7.04431 28828 ft 389 kts 228°
2026-05-06 17:01 43.74454 6.98836 28821 ft 389 kts 229°
2026-05-06 17:01 43.71425 6.92638 28854 ft 391 kts 241°
2026-05-06 17:02 43.69322 6.85682 28863 ft 393 kts 245°
2026-05-06 17:02 43.67282 6.78668 28854 ft 394 kts 245°
2026-05-06 17:03 43.65218 6.71642 28839 ft 395 kts 245°
2026-05-06 17:03 43.63142 6.64630 28846 ft 395 kts 245°
2026-05-06 17:04 43.61059 6.57623 28867 ft 394 kts 245°
2026-05-06 17:04 43.58974 6.50629 28872 ft 395 kts 245°
2026-05-06 17:05 43.56889 6.43655 28876 ft 395 kts 245°
2026-05-06 17:05 43.54791 6.36651 28882 ft 395 kts 245°
2026-05-06 17:06 43.52688 6.29654 28880 ft 395 kts 245°
2026-05-06 17:06 43.50584 6.22667 28884 ft 395 kts 245°
2026-05-06 17:07 43.48475 6.15684 28883 ft 395 kts 245°
2026-05-06 17:07 43.46361 6.08701 28880 ft 395 kts 245°
2026-05-06 17:08 43.44259 6.01776 28891 ft 394 kts 245°
2026-05-06 17:08 43.42144 5.94825 28887 ft 394 kts 245°
2026-05-06 17:09 43.40019 5.87854 28896 ft 395 kts 245°
2026-05-06 17:09 43.37894 5.80903 28910 ft 394 kts 245°
2026-05-06 17:10 43.35766 5.73956 28910 ft 394 kts 245°
2026-05-06 17:10 43.33644 5.67048 28916 ft 394 kts 245°
2026-05-06 17:11 43.31507 5.60107 28915 ft 395 kts 245°
2026-05-06 17:11 43.29354 5.53136 28914 ft 396 kts 245°
2026-05-06 17:12 43.27203 5.46187 28916 ft 395 kts 245°
2026-05-06 17:12 43.25046 5.39233 28899 ft 396 kts 245°
2026-05-06 17:13 43.22885 5.32295 28911 ft 395 kts 245°
2026-05-06 17:13 43.20727 5.25421 28915 ft 395 kts 245°
2026-05-06 17:14 43.18551 5.18512 28911 ft 395 kts 245°
2026-05-06 17:14 43.16372 5.11604 28917 ft 394 kts 245°
2026-05-06 17:15 43.14190 5.04706 28912 ft 394 kts 245°
2026-05-06 17:15 43.12005 4.97811 28914 ft 394 kts 245°
2026-05-06 17:16 43.09833 4.90973 28915 ft 394 kts 245°
2026-05-06 17:16 43.07625 4.84042 28914 ft 395 kts 245°
2026-05-06 17:17 43.04917 4.77609 28922 ft 394 kts 233°
2026-05-06 17:17 43.01135 4.72192 28923 ft 396 kts 223°
2026-05-06 17:18 42.96983 4.67226 28919 ft 397 kts 223°
2026-05-06 17:18 42.92834 4.62267 28818 ft 396 kts 223°
2026-05-06 17:19 42.88758 4.57377 28916 ft 387 kts 223°
2026-05-06 17:19 42.84700 4.52501 28915 ft 390 kts 223°
2026-05-06 17:20 42.80615 4.47599 28919 ft 392 kts 223°
2026-05-06 17:20 42.76516 4.42688 28913 ft 393 kts 223°
2026-05-06 17:21 42.72405 4.37774 28930 ft 393 kts 223°
2026-05-06 17:21 42.68296 4.32870 28935 ft 393 kts 223°
2026-05-06 17:22 42.64216 4.28011 28940 ft 392 kts 223°
2026-05-06 17:22 42.60120 4.23140 28941 ft 390 kts 223°
2026-05-06 17:23 42.56029 4.18284 28924 ft 389 kts 223°
2026-05-06 17:23 42.51950 4.13452 28937 ft 388 kts 223°
2026-05-06 17:24 42.47908 4.08670 28949 ft 388 kts 223°